,,,PA_Meas_PMT16A,,PR_Meas_QMR101_102,,RH_Meas_QMH101,,SR_Meas_QMS101,,TA_Meas_QMH101,,GenWind,,GenWind,
date,time,status,PA,status,PR,status,RH,status,SR,status,TA,status,DirAvg,status,SpdAvg,
2010-11-24, 00:00:04,VALID,999.366,VALID,0,VALID,89.5717,VALID,0,VALID,23.6604,VALID,103,VALID,0.409766,
2010-11-24, 00:01:04,VALID,999.384,VALID,0,VALID,89.8464,VALID,0,VALID,23.6622,VALID,100,VALID,0.513281,
2010-11-24, 00:02:04,VALID,999.354,VALID,0,VALID,90.0448,VALID,0,VALID,23.6232,VALID,60,VALID,0.530859,
2010-11-24, 00:03:04,VALID,999.396,VALID,0,VALID,90.266,VALID,0,VALID,23.5841,VALID,60,VALID,0.55,
2010-11-24, 00:04:04,VALID,999.359,VALID,0,VALID,90.4797,VALID,0,VALID,23.5433,VALID,60,VALID,0.521875,
2010-11-24, 00:05:04,VALID,999.363,VALID,0,VALID,90.5331,VALID,0,VALID,23.4653,VALID,47,VALID,0.722656,
2010-11-24, 00:06:04,VALID,999.323,VALID,0,VALID,90.678,VALID,0,VALID,23.4085,VALID,38,VALID,0.660937,
2010-11-24, 00:07:04,VALID,999.316,VALID,0,VALID,90.8154,VALID,0.112286,VALID,23.3482,VALID,25,VALID,0.532031,
2010-11-24, 00:08:04,VALID,999.268,VALID,0,VALID,91.0061,VALID,0,VALID,23.35,VALID,25,VALID,0.511719,
2010-11-24, 00:09:04,VALID,999.298,VALID,0,VALID,91.2121,VALID,0,VALID,23.3287,VALID,25,VALID,0.582031,
2010-11-24, 00:10:04,VALID,999.259,VALID,0,VALID,91.3952,VALID,0,VALID,23.3287,VALID,25,VALID,0.525781,
2010-11-24, 00:11:04,VALID,999.292,VALID,0,VALID,91.5402,VALID,0,VALID,23.3287,VALID,25,VALID,0.727734,
2010-11-24, 00:12:04,VALID,999.293,VALID,0,VALID,91.6546,VALID,0,VALID,23.3287,VALID,20,VALID,0.805859,
2010-11-24, 00:13:04,VALID,999.295,VALID,0,VALID,91.6851,VALID,0,VALID,23.35,VALID,11,VALID,1.01016,
2010-11-24, 00:14:04,VALID,999.308,VALID,0,VALID,91.7233,VALID,0,VALID,23.3287,VALID,21,VALID,1.14805,
2010-11-24, 00:15:04,VALID,999.301,VALID,0,VALID,91.7614,VALID,0,VALID,23.3695,VALID,11,VALID,0.801172,
2010-11-24, 00:16:04,VALID,999.27,VALID,0,VALID,91.7385,VALID,0,VALID,23.3287,VALID,11,VALID,0.433984,
2010-11-24, 00:17:04,VALID,999.296,VALID,0,VALID,91.6851,VALID,0,VALID,23.3287,VALID,11,VALID,0.0304688,
2010-11-24, 00:18:04,VALID,999.269,VALID,0,VALID,91.5631,VALID,0,VALID,23.2897,VALID,67,VALID,0.64375,
2010-11-24, 00:19:04,VALID,999.254,VALID,0,VALID,91.5249,VALID,0,VALID,23.2719,VALID,68,VALID,0,
2010-11-24, 00:20:04,VALID,999.232,VALID,0,VALID,91.502,VALID,0,VALID,23.2507,VALID,68,VALID,0,
2010-11-24, 00:21:04,VALID,999.224,VALID,0,VALID,91.5249,VALID,0.112286,VALID,23.2507,VALID,68,VALID,0,
2010-11-24, 00:22:04,VALID,999.218,VALID,0,VALID,91.5631,VALID,0.112286,VALID,23.2507,VALID,67,VALID,0.514453,
2010-11-24, 00:23:04,VALID,999.218,VALID,0,VALID,91.6241,VALID,0.112286,VALID,23.2897,VALID,67,VALID,0.155859,
2010-11-24, 00:24:04,VALID,999.222,VALID,0,VALID,91.6775,VALID,0,VALID,23.2897,VALID,67,VALID,0.0828125,
2010-11-24, 00:25:04,VALID,999.229,VALID,0,VALID,91.7385,VALID,0,VALID,23.3305,VALID,67,VALID,0.00585938,
2010-11-24, 00:26:04,VALID,999.246,VALID,0,VALID,91.7538,VALID,0,VALID,23.311,VALID,67,VALID,0.00507812,
2010-11-24, 00:27:04,VALID,999.245,VALID,0,VALID,91.7996,VALID,0,VALID,23.3305,VALID,85,VALID,0.538281,
2010-11-24, 00:28:04,VALID,999.216,VALID,0,VALID,91.8301,VALID,0,VALID,23.3695,VALID,129,VALID,0.444531,
2010-11-24, 00:29:04,VALID,999.23,VALID,0,VALID,91.8225,VALID,0,VALID,23.389,VALID,129,VALID,0.409766,
2010-11-24, 00:30:04,VALID,999.216,VALID,0,VALID,91.7004,VALID,0,VALID,23.4085,VALID,128,VALID,0.0453125,
2010-11-24, 00:31:04,VALID,999.211,VALID,0,VALID,91.441,VALID,0,VALID,23.35,VALID,128,VALID,0.239844,
2010-11-24, 00:32:04,VALID,999.201,VALID,0,VALID,91.2274,VALID,0,VALID,23.311,VALID,14,VALID,0.643359,
2010-11-24, 00:33:04,VALID,999.177,VALID,0,VALID,91.1511,VALID,0,VALID,23.2719,VALID,14,VALID,0.563672,
2010-11-24, 00:34:04,VALID,999.182,VALID,0,VALID,91.2579,VALID,0,VALID,23.2329,VALID,14,VALID,0.486719,
2010-11-24, 00:35:04,VALID,999.196,VALID,0,VALID,91.3723,VALID,0,VALID,23.2134,VALID,14,VALID,0.201172,
2010-11-24, 00:36:04,VALID,999.18,VALID,0,VALID,91.4715,VALID,0,VALID,23.2542,VALID,14,VALID,0.146875,
2010-11-24, 00:37:04,VALID,999.185,VALID,0,VALID,91.6165,VALID,0,VALID,23.2134,VALID,14,VALID,0.302344,
2010-11-24, 00:38:04,VALID,999.193,VALID,0,VALID,91.6928,VALID,0,VALID,23.2134,VALID,14,VALID,0.353906,
2010-11-24, 00:39:04,VALID,999.14,VALID,0,VALID,91.6623,VALID,0,VALID,23.2134,VALID,77,VALID,0.45,
2010-11-24, 00:40:04,VALID,999.128,VALID,0,VALID,91.7004,VALID,0,VALID,23.2329,VALID,88,VALID,0.24375,
2010-11-24, 00:41:04,VALID,999.127,VALID,0,VALID,91.6851,VALID,0,VALID,23.2329,VALID,88,VALID,0.148047,
2010-11-24, 00:42:04,VALID,999.136,VALID,0,VALID,91.647,VALID,0,VALID,23.2134,VALID,88,VALID,0.252734,
2010-11-24, 00:43:04,VALID,999.158,VALID,0,VALID,91.6394,VALID,0,VALID,23.1939,VALID,88,VALID,0.498828,
2010-11-24, 00:44:04,VALID,999.116,VALID,0,VALID,91.6241,VALID,0,VALID,23.1549,VALID,88,VALID,0.435547,
2010-11-24, 00:45:04,VALID,999.135,VALID,0,VALID,91.6165,VALID,0,VALID,23.1159,VALID,88,VALID,0.354688,
2010-11-24, 00:46:04,VALID,999.081,VALID,0,VALID,91.6241,VALID,0,VALID,23.1159,VALID,88,VALID,0.4,
2010-11-24, 00:47:04,VALID,999.096,VALID,0,VALID,91.6928,VALID,0,VALID,23.1176,VALID,88,VALID,0.193359,
2010-11-24, 00:48:04,VALID,999.077,VALID,0,VALID,91.647,VALID,0,VALID,23.0981,VALID,88,VALID,0.269531,
2010-11-24, 00:49:04,VALID,999.084,VALID,0,VALID,91.6394,VALID,0,VALID,23.0378,VALID,88,VALID,0.410156,
2010-11-24, 00:50:04,VALID,999.034,VALID,0,VALID,91.6928,VALID,0,VALID,23.0378,VALID,79,VALID,0.746484,
2010-11-24, 00:51:04,VALID,999.059,VALID,0,VALID,91.7996,VALID,0,VALID,23.0591,VALID,47,VALID,0.923437,
2010-11-24, 00:52:04,VALID,999.027,VALID,0,VALID,91.8301,VALID,0,VALID,23.0183,VALID,41,VALID,0.907422,
2010-11-24, 00:53:04,VALID,999.021,VALID,0,VALID,91.8835,VALID,0,VALID,23.0183,VALID,41,VALID,0.970703,
2010-11-24, 00:54:04,VALID,999.006,VALID,0,VALID,91.8835,VALID,0,VALID,22.9988,VALID,41,VALID,1.00234,
2010-11-24, 00:55:04,VALID,999.006,VALID,0,VALID,91.853,VALID,0,VALID,22.9598,VALID,37,VALID,0.895312,
2010-11-24, 00:56:04,VALID,998.952,VALID,0,VALID,91.8301,VALID,0.112286,VALID,22.9208,VALID,12,VALID,0.971484,
2010-11-24, 00:57:04,VALID,998.942,VALID,0,VALID,91.8911,VALID,0.112286,VALID,22.8995,VALID,12,VALID,0.922656,
2010-11-24, 00:58:04,VALID,998.959,VALID,0,VALID,91.9903,VALID,0,VALID,22.8995,VALID,12,VALID,0.899219,
2010-11-24, 00:59:04,VALID,998.995,VALID,0,VALID,92.0971,VALID,0.112286,VALID,22.919,VALID,12,VALID,0.8625,
2010-11-24, 01:00:04,VALID,998.982,VALID,0,VALID,92.1582,VALID,0,VALID,22.919,VALID,12,VALID,0.687109,
2010-11-24, 01:01:04,VALID,998.983,VALID,0,VALID,92.2268,VALID,0,VALID,22.919,VALID,12,VALID,0.516797,
2010-11-24, 01:02:04,VALID,998.984,VALID,0,VALID,92.2726,VALID,0,VALID,22.919,VALID,12,VALID,0.491016,
2010-11-24, 01:03:04,VALID,998.955,VALID,0,VALID,92.3031,VALID,0.112286,VALID,22.9385,VALID,12,VALID,0.402344,
2010-11-24, 01:04:04,VALID,998.95,VALID,0,VALID,92.3413,VALID,0,VALID,22.919,VALID,12,VALID,0.349609,
2010-11-24, 01:05:04,VALID,998.934,VALID,0,VALID,92.3794,VALID,0,VALID,22.919,VALID,12,VALID,0.2375,
2010-11-24, 01:06:04,VALID,998.933,VALID,0,VALID,92.4023,VALID,0,VALID,22.8995,VALID,12,VALID,0,
2010-11-24, 01:07:04,VALID,998.889,VALID,0,VALID,92.4023,VALID,0,VALID,22.88,VALID,12,VALID,0,
2010-11-24, 01:08:04,VALID,998.905,VALID,0,VALID,92.3947,VALID,0,VALID,22.841,VALID,12,VALID,0,
2010-11-24, 01:09:04,VALID,998.924,VALID,0,VALID,92.3489,VALID,0.112286,VALID,22.7825,VALID,12,VALID,0.451953,
2010-11-24, 01:10:04,VALID,998.933,VALID,0,VALID,92.3871,VALID,0,VALID,22.7825,VALID,12,VALID,0.753906,
2010-11-24, 01:11:04,VALID,998.958,VALID,0,VALID,92.41,VALID,0,VALID,22.7825,VALID,36,VALID,0.861719,
2010-11-24, 01:12:04,VALID,998.931,VALID,0,VALID,92.4405,VALID,0,VALID,22.7825,VALID,46,VALID,0.795313,
2010-11-24, 01:13:04,VALID,998.949,VALID,0,VALID,92.4328,VALID,0.112286,VALID,22.7825,VALID,46,VALID,0.601953,
2010-11-24, 01:14:04,VALID,998.938,VALID,0,VALID,92.4328,VALID,0,VALID,22.7435,VALID,46,VALID,0.440234,
2010-11-24, 01:15:04,VALID,998.927,VALID,0,VALID,92.4176,VALID,0,VALID,22.7435,VALID,50,VALID,0.638281,
2010-11-24, 01:16:04,VALID,998.88,VALID,0,VALID,92.4557,VALID,0,VALID,22.7435,VALID,55,VALID,0.748438,
2010-11-24, 01:17:04,VALID,998.87,VALID,0,VALID,92.4786,VALID,0,VALID,22.7435,VALID,61,VALID,0.480469,
2010-11-24, 01:18:04,VALID,998.883,VALID,0,VALID,92.5168,VALID,0,VALID,22.724,VALID,61,VALID,0.136328,
2010-11-24, 01:19:04,VALID,998.88,VALID,0,VALID,92.5473,VALID,0,VALID,22.7045,VALID,61,VALID,0.0367187,
2010-11-24, 01:20:04,VALID,998.864,VALID,0,VALID,92.532,VALID,0.112286,VALID,22.685,VALID,61,VALID,0.188672,
2010-11-24, 01:21:04,VALID,998.832,VALID,0,VALID,92.5778,VALID,0,VALID,22.6867,VALID,61,VALID,0.334375,
2010-11-24, 01:22:04,VALID,998.832,VALID,0,VALID,92.6007,VALID,0,VALID,22.6867,VALID,61,VALID,0.382031,
2010-11-24, 01:23:04,VALID,998.831,VALID,0,VALID,92.6617,VALID,0.112286,VALID,22.7045,VALID,61,VALID,0.454688,
2010-11-24, 01:24:04,VALID,998.802,VALID,0,VALID,92.7151,VALID,0.112286,VALID,22.7045,VALID,61,VALID,0.373828,
2010-11-24, 01:25:04,VALID,998.787,VALID,0,VALID,92.7457,VALID,0,VALID,22.7062,VALID,61,VALID,0.244531,
2010-11-24, 01:26:04,VALID,998.819,VALID,0,VALID,92.7762,VALID,0,VALID,22.7062,VALID,61,VALID,0.174219,
2010-11-24, 01:27:04,VALID,998.801,VALID,0,VALID,92.8143,VALID,0,VALID,22.6867,VALID,61,VALID,0,
2010-11-24, 01:28:04,VALID,998.807,VALID,0,VALID,92.8067,VALID,0,VALID,22.6672,VALID,61,VALID,0.107422,
2010-11-24, 01:29:04,VALID,998.835,VALID,0,VALID,92.822,VALID,0,VALID,22.6282,VALID,61,VALID,0.603516,
2010-11-24, 01:30:04,VALID,998.848,VALID,0,VALID,92.8677,VALID,0,VALID,22.6672,VALID,96,VALID,0.645312,
2010-11-24, 01:31:04,VALID,998.856,VALID,0,VALID,92.8906,VALID,0,VALID,22.7257,VALID,96,VALID,0.494141,
2010-11-24, 01:32:04,VALID,998.874,VALID,0,VALID,92.9517,VALID,0,VALID,22.7647,VALID,96,VALID,0.659766,
2010-11-24, 01:33:04,VALID,998.874,VALID,0,VALID,92.9898,VALID,0,VALID,22.8037,VALID,96,VALID,0.923047,
2010-11-24, 01:34:04,VALID,998.866,VALID,0,VALID,93.0051,VALID,0,VALID,22.8037,VALID,96,VALID,0.717578,
2010-11-24, 01:35:04,VALID,998.843,VALID,0,VALID,93.028,VALID,0,VALID,22.8232,VALID,96,VALID,0.721875,
2010-11-24, 01:36:04,VALID,998.864,VALID,0,VALID,93.0127,VALID,0,VALID,22.8037,VALID,102,VALID,0.649609,
2010-11-24, 01:37:04,VALID,998.836,VALID,0,VALID,93.0356,VALID,0,VALID,22.7842,VALID,114,VALID,0.575781,
2010-11-24, 01:38:04,VALID,998.83,VALID,0,VALID,93.028,VALID,0,VALID,22.786,VALID,114,VALID,0.489844,
2010-11-24, 01:39:04,VALID,998.827,VALID,0,VALID,93.028,VALID,0,VALID,22.7452,VALID,114,VALID,0.287891,
2010-11-24, 01:40:04,VALID,998.819,VALID,0,VALID,93.0203,VALID,0,VALID,22.7452,VALID,114,VALID,0.230859,
2010-11-24, 01:41:04,VALID,998.81,VALID,0,VALID,93.0127,VALID,0,VALID,22.7452,VALID,114,VALID,0.015625,
2010-11-24, 01:42:04,VALID,998.791,VALID,0,VALID,93.0051,VALID,0,VALID,22.7062,VALID,114,VALID,0,
2010-11-24, 01:43:04,VALID,998.807,VALID,0,VALID,92.9898,VALID,0,VALID,22.7079,VALID,114,VALID,0,
2010-11-24, 01:44:04,VALID,998.807,VALID,0,VALID,93.0051,VALID,0,VALID,22.6867,VALID,114,VALID,0,
2010-11-24, 01:45:04,VALID,998.814,VALID,0,VALID,92.9974,VALID,0,VALID,22.7062,VALID,114,VALID,0.0617188,
2010-11-24, 01:46:04,VALID,998.806,VALID,0,VALID,93.0127,VALID,0,VALID,22.6867,VALID,114,VALID,0,
2010-11-24, 01:47:04,VALID,998.788,VALID,0,VALID,93.0051,VALID,0,VALID,22.6672,VALID,114,VALID,0,
2010-11-24, 01:48:04,VALID,998.79,VALID,0,VALID,93.0127,VALID,0,VALID,22.6867,VALID,114,VALID,0.0785156,
2010-11-24, 01:49:04,VALID,998.761,VALID,0,VALID,93.028,VALID,0,VALID,22.7274,VALID,114,VALID,0.250781,
2010-11-24, 01:50:04,VALID,998.738,VALID,0,VALID,93.0585,VALID,0,VALID,22.8055,VALID,120,VALID,0.539063,
2010-11-24, 01:51:04,VALID,998.735,VALID,0,VALID,93.0966,VALID,0,VALID,22.864,VALID,139,VALID,0.946484,
2010-11-24, 01:52:04,VALID,998.737,VALID,0,VALID,93.1043,VALID,0,VALID,22.8818,VALID,139,VALID,0.669141,
2010-11-24, 01:53:04,VALID,998.723,VALID,0,VALID,93.1119,VALID,0,VALID,22.942,VALID,139,VALID,0.777734,
2010-11-24, 01:54:04,VALID,998.718,VALID,0,VALID,93.1348,VALID,0,VALID,22.9403,VALID,139,VALID,0.338281,
2010-11-24, 01:55:04,VALID,998.721,VALID,0,VALID,93.1195,VALID,0,VALID,22.9598,VALID,139,VALID,0.359375,
2010-11-24, 01:56:04,VALID,998.727,VALID,0,VALID,93.1348,VALID,0,VALID,22.9793,VALID,131,VALID,0.554688,
2010-11-24, 01:57:04,VALID,998.731,VALID,0,VALID,93.1424,VALID,0,VALID,23.0591,VALID,140,VALID,0.518359,
2010-11-24, 01:58:04,VALID,998.725,VALID,0,VALID,93.1729,VALID,0,VALID,23.0573,VALID,140,VALID,0.289844,
2010-11-24, 01:59:04,VALID,998.712,VALID,0,VALID,93.1653,VALID,0,VALID,23.0573,VALID,140,VALID,0.188281,
2010-11-24, 02:00:04,VALID,998.703,VALID,0,VALID,93.1577,VALID,0,VALID,23.0769,VALID,140,VALID,0,
2010-11-24, 02:01:04,VALID,998.669,VALID,0,VALID,93.15,VALID,0,VALID,23.0769,VALID,140,VALID,0,
2010-11-24, 02:02:04,VALID,998.683,VALID,0,VALID,93.1577,VALID,0,VALID,23.0769,VALID,140,VALID,0,
2010-11-24, 02:03:04,VALID,998.65,VALID,0,VALID,93.1271,VALID,0,VALID,23.0981,VALID,140,VALID,0.139453,
2010-11-24, 02:04:04,VALID,998.668,VALID,0,VALID,93.15,VALID,0,VALID,23.0964,VALID,171,VALID,0,
2010-11-24, 02:05:04,VALID,998.654,VALID,0,VALID,93.1119,VALID,0,VALID,23.1159,VALID,171,VALID,0,
2010-11-24, 02:06:04,VALID,998.662,VALID,0,VALID,93.1043,VALID,0,VALID,23.0964,VALID,171,VALID,0,
2010-11-24, 02:07:04,VALID,998.674,VALID,0,VALID,93.1043,VALID,0,VALID,23.1354,VALID,171,VALID,0,
2010-11-24, 02:08:04,VALID,998.678,VALID,0,VALID,93.0814,VALID,0,VALID,23.1549,VALID,171,VALID,0,
2010-11-24, 02:09:04,VALID,998.676,VALID,0,VALID,93.0737,VALID,0,VALID,23.1744,VALID,171,VALID,0,
2010-11-24, 02:10:04,VALID,998.654,VALID,0,VALID,93.028,VALID,0,VALID,23.1744,VALID,171,VALID,0,
2010-11-24, 02:11:04,VALID,998.647,VALID,0,VALID,92.9745,VALID,0,VALID,23.1762,VALID,171,VALID,0,
2010-11-24, 02:12:04,VALID,998.635,VALID,0,VALID,92.9517,VALID,0,VALID,23.1549,VALID,171,VALID,0,
2010-11-24, 02:13:04,VALID,998.598,VALID,0,VALID,92.9059,VALID,0,VALID,23.1354,VALID,171,VALID,0,
2010-11-24, 02:14:04,VALID,998.576,VALID,0,VALID,92.8601,VALID,0,VALID,23.1159,VALID,171,VALID,0,
2010-11-24, 02:15:04,VALID,998.525,VALID,0,VALID,92.8296,VALID,0,VALID,23.1354,VALID,171,VALID,0,
2010-11-24, 02:16:04,VALID,998.513,VALID,0,VALID,92.7991,VALID,0,VALID,23.1744,VALID,171,VALID,0,
2010-11-24, 02:17:04,VALID,998.501,VALID,0,VALID,92.7762,VALID,0,VALID,23.1744,VALID,171,VALID,0,
2010-11-24, 02:18:04,VALID,998.489,VALID,0,VALID,92.738,VALID,0,VALID,23.1939,VALID,171,VALID,0,
2010-11-24, 02:19:04,VALID,998.503,VALID,0,VALID,92.677,VALID,0,VALID,23.1744,VALID,171,VALID,0,
2010-11-24, 02:20:04,VALID,998.525,VALID,0,VALID,92.6007,VALID,0,VALID,23.1354,VALID,171,VALID,0,
2010-11-24, 02:21:04,VALID,998.475,VALID,0,VALID,92.5091,VALID,0,VALID,23.1159,VALID,171,VALID,0,
2010-11-24, 02:22:04,VALID,998.515,VALID,0,VALID,92.41,VALID,0,VALID,23.1176,VALID,171,VALID,0,
2010-11-24, 02:23:04,VALID,998.514,VALID,0,VALID,92.2879,VALID,0,VALID,23.0591,VALID,171,VALID,0,
2010-11-24, 02:24:04,VALID,998.523,VALID,0,VALID,92.1506,VALID,0,VALID,23.0573,VALID,171,VALID,0,
2010-11-24, 02:25:04,VALID,998.48,VALID,0,VALID,92.0971,VALID,0,VALID,23.1371,VALID,171,VALID,0,
2010-11-24, 02:26:04,VALID,998.484,VALID,0,VALID,92.0285,VALID,0,VALID,23.1354,VALID,171,VALID,0,
2010-11-24, 02:27:04,VALID,998.467,VALID,0,VALID,91.9445,VALID,0,VALID,23.0964,VALID,86,VALID,0,
2010-11-24, 02:28:04,VALID,998.472,VALID,0,VALID,91.8606,VALID,0,VALID,23.1371,VALID,49,VALID,0,
2010-11-24, 02:29:04,VALID,998.494,VALID,0,VALID,91.792,VALID,0,VALID,23.1354,VALID,49,VALID,0,
2010-11-24, 02:30:04,VALID,998.492,VALID,0,VALID,91.6546,VALID,0,VALID,23.1566,VALID,49,VALID,0,
2010-11-24, 02:31:04,VALID,998.492,VALID,0,VALID,91.4944,VALID,0,VALID,23.1354,VALID,49,VALID,0,
2010-11-24, 02:32:04,VALID,998.484,VALID,0,VALID,91.3342,VALID,0,VALID,23.1159,VALID,49,VALID,0,
2010-11-24, 02:33:04,VALID,998.497,VALID,0,VALID,91.174,VALID,0,VALID,23.0769,VALID,49,VALID,0,
2010-11-24, 02:34:04,VALID,998.506,VALID,0,VALID,91.1282,VALID,0,VALID,23.0769,VALID,49,VALID,0,
2010-11-24, 02:35:04,VALID,998.508,VALID,0,VALID,91.1053,VALID,0,VALID,23.0786,VALID,49,VALID,0,
2010-11-24, 02:36:04,VALID,998.493,VALID,0,VALID,91.0595,VALID,0,VALID,23.0591,VALID,52,VALID,0,
2010-11-24, 02:37:04,VALID,998.531,VALID,0,VALID,90.9756,VALID,0,VALID,23.0396,VALID,72,VALID,0,
2010-11-24, 02:38:04,VALID,998.532,VALID,0,VALID,90.9985,VALID,0,VALID,22.9988,VALID,75,VALID,0,
2010-11-24, 02:39:04,VALID,998.512,VALID,0,VALID,91.0519,VALID,0,VALID,22.9793,VALID,75,VALID,0.530859,
2010-11-24, 02:40:04,VALID,998.505,VALID,0,VALID,91.09,VALID,0,VALID,22.9988,VALID,75,VALID,1.11563,
2010-11-24, 02:41:04,VALID,998.517,VALID,0,VALID,91.1587,VALID,0,VALID,23.0201,VALID,70,VALID,1.07383,
2010-11-24, 02:42:04,VALID,998.513,VALID,0,VALID,91.1511,VALID,0,VALID,22.9793,VALID,61,VALID,1.0418,
2010-11-24, 02:43:04,VALID,998.46,VALID,0,VALID,91.1206,VALID,0,VALID,22.9793,VALID,44,VALID,0.710156,
2010-11-24, 02:44:04,VALID,998.416,VALID,0,VALID,91.1663,VALID,0,VALID,22.9403,VALID,29,VALID,0.380078,
2010-11-24, 02:45:04,VALID,998.408,VALID,0,VALID,91.1968,VALID,0,VALID,22.9208,VALID,29,VALID,0.243359,
2010-11-24, 02:46:04,VALID,998.386,VALID,0,VALID,91.2655,VALID,0,VALID,22.942,VALID,29,VALID,0.00195313,
2010-11-24, 02:47:04,VALID,998.398,VALID,0,VALID,91.4028,VALID,0,VALID,22.9013,VALID,29,VALID,0,
2010-11-24, 02:48:04,VALID,998.405,VALID,0,VALID,91.5173,VALID,0,VALID,22.9013,VALID,29,VALID,0,
2010-11-24, 02:49:04,VALID,998.404,VALID,0,VALID,91.6317,VALID,0,VALID,22.9208,VALID,29,VALID,0,
2010-11-24, 02:50:04,VALID,998.423,VALID,0,VALID,91.708,VALID,0,VALID,22.9013,VALID,29,VALID,0,
2010-11-24, 02:51:04,VALID,998.41,VALID,0,VALID,91.7996,VALID,0,VALID,22.9208,VALID,29,VALID,0,
2010-11-24, 02:52:04,VALID,998.404,VALID,0,VALID,91.8759,VALID,0,VALID,22.9208,VALID,29,VALID,0,
2010-11-24, 02:53:04,VALID,998.432,VALID,0,VALID,91.9445,VALID,0,VALID,22.9598,VALID,29,VALID,0.635156,
2010-11-24, 02:54:04,VALID,998.421,VALID,0,VALID,91.9903,VALID,0,VALID,23.0006,VALID,29,VALID,0.610547,
2010-11-24, 02:55:04,VALID,998.416,VALID,0,VALID,92.0209,VALID,0,VALID,22.9971,VALID,29,VALID,0.447656,
2010-11-24, 02:56:04,VALID,998.411,VALID,0,VALID,92.0285,VALID,0,VALID,23.0361,VALID,29,VALID,0,
2010-11-24, 02:57:04,VALID,998.403,VALID,0,VALID,91.9751,VALID,0,VALID,23.0361,VALID,39,VALID,0,
2010-11-24, 02:58:04,VALID,998.361,VALID,0,VALID,91.9369,VALID,0,VALID,23.0556,VALID,39,VALID,0,
2010-11-24, 02:59:04,VALID,998.356,VALID,0,VALID,91.9217,VALID,0,VALID,23.0769,VALID,60,VALID,0.275391,
2010-11-24, 03:00:04,VALID,998.353,VALID,0,VALID,91.9445,VALID,0,VALID,23.0751,VALID,75,VALID,0.664453,
2010-11-24, 03:01:04,VALID,998.334,VALID,0,VALID,91.9445,VALID,0,VALID,23.0751,VALID,75,VALID,0.777734,
2010-11-24, 03:02:04,VALID,998.328,VALID,0,VALID,92.0132,VALID,0,VALID,23.0946,VALID,75,VALID,0.499219,
2010-11-24, 03:03:04,VALID,998.318,VALID,0,VALID,92.0361,VALID,0.112286,VALID,23.0946,VALID,71,VALID,0.519531,
2010-11-24, 03:04:04,VALID,998.279,VALID,0,VALID,92.0971,VALID,0.112286,VALID,23.1141,VALID,71,VALID,0.527344,
2010-11-24, 03:05:04,VALID,998.288,VALID,0,VALID,92.1277,VALID,0,VALID,23.1336,VALID,71,VALID,0.498437,
2010-11-24, 03:06:04,VALID,998.294,VALID,0,VALID,92.1353,VALID,0,VALID,23.1531,VALID,71,VALID,0.650391,
2010-11-24, 03:07:04,VALID,998.306,VALID,0,VALID,92.1353,VALID,0,VALID,23.1726,VALID,71,VALID,0.541797,
2010-11-24, 03:08:04,VALID,998.32,VALID,0,VALID,92.1429,VALID,0,VALID,23.1921,VALID,101,VALID,0.66875,
2010-11-24, 03:09:04,VALID,998.286,VALID,0,VALID,92.1277,VALID,0,VALID,23.1921,VALID,88,VALID,1.28008,
2010-11-24, 03:10:04,VALID,998.303,VALID,0,VALID,92.0361,VALID,0,VALID,23.2312,VALID,96,VALID,1.51016,
2010-11-24, 03:11:04,VALID,998.3,VALID,0,VALID,91.9445,VALID,0,VALID,23.2507,VALID,99,VALID,1.80078,
2010-11-24, 03:12:04,VALID,998.26,VALID,0,VALID,91.7614,VALID,0,VALID,23.2702,VALID,101,VALID,1.46758,
2010-11-24, 03:13:04,VALID,998.27,VALID,0,VALID,91.5478,VALID,0.112286,VALID,23.2897,VALID,109,VALID,1.32578,
2010-11-24, 03:14:04,VALID,998.266,VALID,0,VALID,91.3266,VALID,0,VALID,23.2897,VALID,117,VALID,1.41875,
2010-11-24, 03:15:04,VALID,998.26,VALID,0,VALID,91.1358,VALID,0,VALID,23.3092,VALID,126,VALID,1.36797,
2010-11-24, 03:16:04,VALID,998.284,VALID,0,VALID,90.9603,VALID,0,VALID,23.3287,VALID,121,VALID,1.23984,
2010-11-24, 03:17:04,VALID,998.307,VALID,0,VALID,90.8077,VALID,0.112286,VALID,23.3287,VALID,116,VALID,1.1707,
2010-11-24, 03:18:04,VALID,998.324,VALID,0,VALID,90.7009,VALID,0,VALID,23.3287,VALID,116,VALID,1.16172,
2010-11-24, 03:19:04,VALID,998.348,VALID,0,VALID,90.617,VALID,0,VALID,23.3287,VALID,120,VALID,1.05938,
2010-11-24, 03:20:04,VALID,998.355,VALID,0,VALID,90.5788,VALID,0,VALID,23.3092,VALID,120,VALID,0.877734,
2010-11-24, 03:21:04,VALID,998.37,VALID,0,VALID,90.5712,VALID,0,VALID,23.2897,VALID,120,VALID,0.790234,
2010-11-24, 03:22:04,VALID,998.342,VALID,0,VALID,90.5483,VALID,0,VALID,23.2702,VALID,120,VALID,0.616016,
2010-11-24, 03:23:04,VALID,998.332,VALID,0,VALID,90.5788,VALID,0,VALID,23.2507,VALID,120,VALID,0.16875,
2010-11-24, 03:24:04,VALID,998.338,VALID,0,VALID,90.617,VALID,0,VALID,23.2312,VALID,120,VALID,0.135937,
2010-11-24, 03:25:04,VALID,998.352,VALID,0,VALID,90.617,VALID,0,VALID,23.2134,VALID,120,VALID,0,
2010-11-24, 03:26:04,VALID,998.355,VALID,0,VALID,90.6551,VALID,0,VALID,23.1939,VALID,120,VALID,0,
2010-11-24, 03:27:04,VALID,998.331,VALID,0,VALID,90.7543,VALID,0,VALID,23.1939,VALID,120,VALID,0,
2010-11-24, 03:28:04,VALID,998.349,VALID,0,VALID,90.8459,VALID,0,VALID,23.1939,VALID,120,VALID,0.219922,
2010-11-24, 03:29:04,VALID,998.338,VALID,0,VALID,90.9374,VALID,0,VALID,23.1531,VALID,120,VALID,0.332812,
2010-11-24, 03:30:04,VALID,998.362,VALID,0,VALID,91.0443,VALID,0,VALID,23.1957,VALID,58,VALID,0.839453,
2010-11-24, 03:31:04,VALID,998.397,VALID,0,VALID,91.1358,VALID,0,VALID,23.1744,VALID,67,VALID,0.84375,
2010-11-24, 03:32:04,VALID,998.343,VALID,0,VALID,91.1206,VALID,0,VALID,23.1939,VALID,83,VALID,0.928516,
2010-11-24, 03:33:04,VALID,998.391,VALID,0,VALID,91.0671,VALID,0,VALID,23.2134,VALID,82,VALID,0.955078,
2010-11-24, 03:34:04,VALID,998.371,VALID,0,VALID,90.9603,VALID,0,VALID,23.2134,VALID,80,VALID,0.6125,
2010-11-24, 03:35:04,VALID,998.336,VALID,0,VALID,90.8535,VALID,0,VALID,23.2134,VALID,80,VALID,0.421875,
2010-11-24, 03:36:04,VALID,998.307,VALID,0,VALID,90.762,VALID,0,VALID,23.1921,VALID,80,VALID,0.213672,
2010-11-24, 03:37:04,VALID,998.317,VALID,0,VALID,90.7162,VALID,0,VALID,23.1744,VALID,80,VALID,0.51875,
2010-11-24, 03:38:04,VALID,998.324,VALID,0,VALID,90.7467,VALID,0,VALID,23.1531,VALID,80,VALID,0.619531,
2010-11-24, 03:39:04,VALID,998.328,VALID,0,VALID,90.8001,VALID,0,VALID,23.1549,VALID,80,VALID,0.758984,
2010-11-24, 03:40:04,VALID,998.362,VALID,0,VALID,90.8154,VALID,0,VALID,23.1354,VALID,79,VALID,0.827344,
2010-11-24, 03:41:04,VALID,998.353,VALID,0,VALID,90.7925,VALID,0,VALID,23.0964,VALID,60,VALID,0.991797,
2010-11-24, 03:42:04,VALID,998.318,VALID,0,VALID,90.8611,VALID,0,VALID,23.0769,VALID,59,VALID,0.430859,
2010-11-24, 03:43:04,VALID,998.341,VALID,0,VALID,90.8917,VALID,0,VALID,23.0183,VALID,59,VALID,0,
2010-11-24, 03:44:04,VALID,998.346,VALID,0,VALID,90.8917,VALID,0,VALID,22.9988,VALID,59,VALID,0.0988281,
2010-11-24, 03:45:04,VALID,998.347,VALID,0,VALID,90.8917,VALID,0,VALID,22.9403,VALID,59,VALID,0.00195313,
2010-11-24, 03:46:04,VALID,998.324,VALID,0,VALID,91.0214,VALID,0,VALID,22.9208,VALID,59,VALID,0.432813,
2010-11-24, 03:47:04,VALID,998.28,VALID,0,VALID,91.1968,VALID,0,VALID,22.9208,VALID,59,VALID,0.387109,
2010-11-24, 03:48:04,VALID,998.305,VALID,0,VALID,91.3189,VALID,0,VALID,22.8818,VALID,59,VALID,0.183203,
2010-11-24, 03:49:04,VALID,998.292,VALID,0,VALID,91.4181,VALID,0,VALID,22.8623,VALID,59,VALID,0.241797,